Dewpoint
-13 -11 -8 -6 -6 -7 -8 -10 -10 -12 -18 -23 -19 -17 -17 -16 -16 -17 -13 -17 -12 -4 -10 -8 -7 -8 -8 -8 -6 -6 -9 -6 -6 -4 -3 -2 -2 -1 -0 -0 0 -0 1 -0 -2 -2 -1 -1 -3 -0 -0 -1 1 0
-16 -13 -9 -7 -6 -7 -7 -9 -10 -12 -16 -23 -19 -17 -16 -17 -17 -20 -14 -17 -15 -12 -10 -14 -13 -12 -9 -6 -4 -6 -6 -6 -3 -4 -4 -3 -2 -1 -3 -1 -3 -0 -0 -1 -0 0 -1 -2 -2 -2 -1 -1 -0 0
-18 -16 -11 -8 -6 -6 -7 -8 -10 -13 -15 -21 -20 -17 -15 -17 -17 -18 -17 -18 -17 -16 -9 -14 -12 -11 -9 -7 -7 -5 -7 -4 -5 -4 -3 -3 -2 -2 -1 -1 -3 -2 -2 -1 -1 -1 -1 -2 -2 -2 -2 -1 -1 -1
-20 -16 -12 -8 -6 -6 -6 -7 -9 -12 -15 -19 -21 -16 -15 -15 -15 -18 -18 -17 -17 -16 -4 -13 -14 -10 -10 -8 -7 -6 -4 -4 -4 -4 -4 -4 -4 -5 -1 -4 -3 -3 -4 -2 -2 -2 -1 -2 -2 -2 -2 -2 -2 -2
-20 -16 -12 -8 -6 -5 -5 -7 -9 -11 -14 -18 -21 -16 -14 -13 -15 -17 -17 -15 -15 -9 -5 -10 -13 -12 -10 -9 -5 -4 -4 -5 -4 -4 -4 -4 -7 -4 -7 -6 -2 -2 -2 -2 -1 -2 -1 -2 -3 -3 -2 -2 -2 -2
-20 -17 -13 -9 -6 -5 -5 -6 -8 -11 -13 -17 -21 -18 -15 -13 -16 -15 -14 -12 -15 -15 -10 -6 -14 -11 -12 -10 -7 -5 -5 -4 -5 -5 -5 -7 -6 -4 -3 -3 -1 -2 -1 -2 -2 -2 -3 -3 -2 -3 -3 -3 -3 -2
-19 -16 -12 -9 -7 -5 -4 -5 -6 -10 -11 -17 -21 -19 -15 -13 -16 -16 -10 -14 -15 -15 -9 -8 -13 -11 -12 -8 -7 -7 -6 -3 -4 -5 -6 -8 -7 -6 -4 -2 -3 -3 -4 -4 -4 -4 -4 -3 -2 -3 -3 -2 -2 -2
-19 -16 -9 -9 -7 -5 -4 -5 -6 -8 -10 -16 -21 -17 -14 -12 -16 -15 -17 -16 -14 -13 -13 -7 -11 -11 -11 -9 -6 -8 -5 -8 -7 -6 -7 -7 -9 -10 -6 -8 -7 -5 -6 -5 -4 -5 -4 -5 -4 -3 -3 -3 -3 -3
-18 -12 -8 -8 -7 -5 -4 -5 -6 -6 -9 -15 -20 -14 -10 -10 -12 -13 -18 -18 -14 -12 -5 -10 -9 -7 -9 -8 -8 -7 -6 -4 -7 -7 -8 -9 -9 -7 -7 -8 -8 -6 -6 -6 -6 -6 -6 -5 -5 -5 -4 -4 -4 -4
-15 -10 -8 -6 -6 -4 -4 -4 -5 -6 -8 -13 -18 -11 -9 -10 -12 -13 -16 -14 -13 -14 -14 -10 -9 -9 -7 -8 -8 -8 -7 -6 -6 -6 -6 -9 -8 -8 -7 -8 -8 -7 -7 -6 -7 -6 -6 -6 -6 -5 -4 -3 -3 -4
-11 -8 -6 -5 -5 -4 -4 -4 -4 -5 -8 -15 -11 -9 -9 -11 -10 -12 -8 -5 -6 -5 -8 -9 -8 -9 -7 -5 -6 -6 -6 -9 -9 -7 -8 -10 -11 -9 -7 -8 -7 -8 -8 -7 -6 -6 -5 -5 -5 -5 -5 -4 -4 -3
-7 -6 -5 -5 -5 -4 -4 -4 -4 -5 -10 -15 -11 -10 -10 -8 -8 -8 -8 -8 -8 -13 -10 -11 -9 -9 -8 -7 -6 -7 -8 -10 -9 -8 -6 -11 -10 -9 -8 -8 -7 -7 -7 -8 -8 -8 -7 -6 -6 -6 -6 -5 -8 -6
-5 -5 -5 -5 -4 -4 -4 -4 -4 -6 -9 -15 -12 -8 -6 -7 -8 -12 -11 -10 -7 -10 -10 -10 -8 -8 -7 -7 -7 -9 -10 -8 -8 -5 -8 -10 -8 -9 -8 -7 -7 -6 -7 -7 -7 -7 -8 -7 -7 -8 -8 -6 -8 -8
-4 -5 -5 -5 -4 -3 -3 -4 -4 -6 -11 -12 -6 -7 -8 -7 -10 -15 -18 -14 -10 -11 -11 -10 -8 -7 -7 -7 -8 -10 -11 -9 -7 -6 -9 -8 -10 -9 -8 -8 -7 -7 -7 -7 -7 -7 -7 -8 -10 -10 -10 -9 -9 -7
-4 -4 -4 -4 -3 -3 -3 -4 -4 -6 -13 -7 -6 -7 -9 -12 -11 -11 -11 -9 -9 -9 -9 -9 -9 -8 -9 -8 -9 -10 -9 -9 -12 -11 -11 -11 -9 -9 -9 -8 -8 -8 -8 -7 -7 -7 -7 -8 -9 -9 -10 -9 -8 -6
-4 -4 -3 -3 -3 -3 -3 -4 -4 -6 -12 -6 -6 -6 -7 -8 -8 -8 -9 -10 -8 -8 -8 -9 -8 -7 -8 -9 -9 -8 -12 -13 -15 -13 -9 -10 -11 -10 -9 -8 -8 -7 -7 -6 -6 -5 -6 -6 -7 -6 -9 -8 -7 -6
-3 -4 -4 -3 -3 -3 -3 -4 -4 -6 -7 -7 -7 -6 -6 -6 -5 -7 -10 -11 -8 -8 -8 -8 -7 -9 -9 -8 -10 -12 -10 -13 -14 -11 -10 -10 -11 -10 -9 -8 -7 -6 -5 -5 -5 -5 -5 -6 -7 -6 -4 -5 -5 -5
-3 -4 -4 -3 -3 -3 -4 -4 -4 -6 -7 -7 -6 -5 -5 -7 -6 -7 -9 -8 -8 -9 -9 -10 -9 -7 -7 -9 -11 -11 -11 -11 -10 -10 -10 -10 -9 -9 -8 -7 -6 -5 -4 -4 -5 -5 -4 -4 -4 -4 -3 -5 -5 -5
-3 -4 -3 -3 -3 -4 -5 -5 -4 -5 -6 -5 -6 -6 -5 -6 -6 -7 -8 -7 -7 -7 -8 -8 -10 -10 -13 -14 -14 -13 -11 -9 -10 -9 -9 -8 -7 -7 -7 -6 -5 -5 -4 -4 -4 -5 -4 -5 -4 -4 -4 -4 -4 -5
-3 -3 -3 -3 -3 -3 -5 -5 -5 -4 -5 -5 -5 -5 -6 -7 -7 -7 -7 -7 -6 -7 -8 -8 -10 -13 -12 -13 -12 -11 -11 -10 -9 -9 -9 -8 -7 -6 -6 -5 -4 -4 -4 -5 -4 -4 -3 -4 -4 -4 -4 -5 -6 -6
-3 -3 -3 -3 -4 -3 -4 -5 -5 -5 -5 -5 -6 -6 -6 -6 -6 -7 -6 -6 -6 -7 -8 -10 -11 -11 -11 -11 -11 -11 -12 -10 -11 -11 -11 -10 -9 -6 -6 -5 -4 -4 -5 -5 -4 -3 -4 -4 -5 -5 -6 -6 -7 -7
-3 -3 -4 -4 -3 -4 -4 -5 -5 -6 -5 -6 -5 -5 -5 -5 -4 -5 -5 -5 -7 -8 -9 -9 -10 -10 -9 -9 -9 -9 -10 -9 -9 -9 -9 -9 -9 -7 -5 -4 -3 -4 -5 -5 -4 -5 -4 -5 -6 -6 -6 -7 -8 -8
-3 -3 -3 -4 -4 -4 -4 -5 -5 -6 -5 -6 -6 -6 -7 -6 -6 -6 -5 -6 -7 -8 -9 -12 -15 -14 -10 -10 -9 -9 -8 -8 -8 -10 -9 -7 -6 -5 -4 -3 -4 -6 -5 -6 -5 -7 -5 -5 -7 -7 -7 -8 -8 -9
-3 -3 -3 -4 -4 -4 -5 -4 -4 -6 -6 -6 -6 -6 -6 -6 -5 -6 -6 -10 -9 -9 -10 -12 -13 -12 -10 -8 -9 -9 -10 -9 -12 -10 -7 -6 -5 -4 -6 -4 -4 -5 -5 -6 -5 -6 -6 -6 -7 -7 -7 -8 -10 -10
-3 -4 -3 -4 -4 -5 -5 -4 -5 -5 -5 -7 -7 -7 -6 -5 -4 -6 -7 -8 -9 -9 -10 -11 -12 -12 -11 -11 -12 -12 -12 -12 -13 -12 -12 -10 -9 -4 -4 -7 -7 -6 -5 -5 -6 -8 -8 -7 -7 -7 -8 -9 -11 -13
-3 -4 -4 -4 -5 -5 -6 -5 -5 -5 -6 -6 -8 -9 -6 -5 -4 -5 -6 -10 -10 -10 -11 -11 -12 -12 -12 -13 -13 -13 -14 -13 -11 -11 -11 -10 -10 -11 -11 -11 -12 -13 -11 -8 -6 -8 -8 -8 -7 -7 -8 -10 -14 -11
-3 -4 -4 -5 -6 -7 -6 -7 -7 -6 -5 -5 -6 -5 -5 -5 -5 -6 -12 -12 -12 -13 -13 -13 -13 -14 -15 -15 -15 -14 -14 -12 -11 -11 -11 -11 -12 -13 -14 -16 -15 -13 -12 -9 -9 -8 -8 -8 -8 -8 -11 -16 -13 -11
-3 -4 -4 -5 -6 -7 -5 -5 -6 -5 -6 -7 -7 -5 -5 -6 -5 -12 -13 -13 -14 -15 -15 -14 -14 -15 -15 -15 -15 -13 -13 -12 -11 -9 -9 -8 -9 -11 -16 -18 -17 -13 -12 -11 -9 -8 -7 -7 -8 -9 -16 -19 -12 -11
-4 -4 -5 -5 -6 -6 -6 -5 -6 -7 -7 -7 -5 -6 -7 -9 -11 -13 -13 -14 -14 -14 -16 -16 -16 -17 -17 -17 -16 -14 -12 -12 -11 -10 -8 -8 -9 -12 -17 -20 -19 -16 -14 -11 -9 -8 -8 -8 -10 -12 -21 -17 -12 -12
-4 -4 -5 -5 -5 -5 -7 -8 -7 -8 -8 -8 -9 -9 -9 -10 -12 -12 -13 -13 -13 -14 -14 -14 -15 -16 -16 -16 -16 -15 -13 -11 -11 -10 -10 -10 -12 -15 -18 -23 -22 -19 -16 -13 -10 -9 -8 -10 -14 -18 -24 -16 -12 -12
-4 -4 -5 -6 -6 -7 -7 -8 -8 -9 -9 -9 -9 -8 -8 -9 -11 -12 -12 -13 -13 -13 -13 -14 -14 -14 -14 -15 -15 -15 -15 -15 -14 -12 -10 -10 -9 -10 -18 -21 -19 -18 -17 -15 -11 -10 -9 -11 -17 -24 -24 -16 -13 -12
-6 -5 -5 -5 -5 -8 -8 -8 -8 -8 -9 -8 -7 -8 -7 -8 -8 -9 -11 -12 -12 -12 -13 -13 -13 -13 -14 -14 -15 -15 -16 -14 -14 -14 -12 -10 -9 -8 -14 -17 -16 -15 -16 -15 -11 -10 -10 -12 -19 -29 -28 -20 -14 -12
-7 -6 -5 -6 -6 -7 -8 -7 -6 -6 -6 -7 -7 -7 -7 -7 -7 -9 -10 -11 -12 -12 -12 -13 -13 -13 -13 -13 -14 -15 -16 -15 -15 -14 -13 -10 -8 -7 -10 -15 -12 -12 -14 -16 -12 -11 -10 -11 -16 -22 -28 -25 -16 -13
Wind_Speed
13 10 7 6 5 5 5 7 7 7 8 10 11 11 11 13 15 14 16 14 6 3 11 9 9 16 20 21 11 25 11 22 13 12 8 6 7 8 4 12 7 11 6 6 6 9 10 32 14 7 8 12 14 18
14 11 8 6 4 5 4 5 6 6 6 8 9 11 11 11 13 14 14 8 8 10 7 15 17 16 13 10 11 16 8 15 10 5 7 5 6 6 15 9 19 10 8 9 9 6 6 24 15 22 17 12 17 18
15 12 9 7 5 4 3 4 5 5 5 6 8 9 10 11 12 12 17 8 6 5 4 18 16 19 20 17 14 8 12 11 10 8 6 4 5 6 9 12 10 12 19 12 2 10 18 26 29 29 24 19 18 18
16 13 11 8 6 4 3 3 4 5 4 5 7 8 8 10 12 8 14 18 6 4 3 10 22 16 18 17 19 15 10 12 9 7 7 6 6 12 8 10 13 11 12 10 10 19 11 27 26 25 26 25 24 22
17 15 12 10 7 5 4 2 3 4 3 3 5 6 7 9 10 4 10 17 16 4 1 5 13 23 17 15 13 14 12 12 12 8 9 7 7 7 15 9 10 11 7 6 6 17 9 14 18 22 29 30 29 28
18 16 14 11 9 6 4 3 1 3 3 2 4 5 5 7 8 2 4 10 15 10 3 2 6 17 13 13 13 16 15 12 12 8 7 12 12 9 6 8 21 21 19 17 8 15 16 11 19 21 24 27 28 32
19 17 15 13 11 8 5 4 2 1 3 1 3 4 3 5 8 5 3 6 9 7 3 3 4 11 18 12 11 12 14 11 9 7 10 14 16 8 9 9 19 21 20 21 22 16 23 21 21 22 23 23 25 25
20 18 16 14 13 10 7 5 4 1 2 1 2 3 1 2 3 4 5 8 8 5 4 3 3 4 17 8 6 11 8 9 12 8 7 11 10 11 7 19 21 18 21 23 22 22 21 21 24 26 25 24 25 25
22 19 18 16 15 12 9 7 6 3 1 1 1 1 1 1 0 2 2 3 8 4 2 3 4 3 10 7 5 5 6 4 5 9 8 8 6 6 8 12 15 15 16 15 15 16 18 19 19 20 22 23 25 25
22 20 19 17 16 13 10 8 7 4 2 2 1 2 1 2 2 1 1 2 2 2 2 2 3 3 6 6 5 4 4 2 2 4 3 3 6 7 8 9 10 10 11 12 14 16 17 18 18 17 17 16 16 18
23 21 20 18 18 15 12 10 8 5 2 2 3 2 3 1 1 0 1 0 1 1 2 0 2 4 4 3 3 4 2 3 2 3 4 0 2 4 3 5 5 6 8 9 8 9 10 11 14 15 16 16 14 14
25 23 21 20 19 15 13 11 9 7 3 3 2 2 1 2 1 1 1 1 4 2 5 2 1 1 1 2 2 2 2 2 1 4 2 2 3 2 1 2 3 4 5 7 8 9 10 11 12 14 13 14 14 14
26 24 22 22 19 17 16 12 11 8 5 3 2 2 3 2 3 4 6 3 3 7 7 5 2 1 1 1 2 2 1 1 3 2 2 2 4 5 5 3 4 5 6 7 8 9 11 11 11 13 12 12 13 13
27 25 23 23 21 19 19 15 13 10 5 3 3 3 4 4 4 4 2 3 4 7 10 4 2 2 2 2 1 2 1 2 2 3 4 5 7 5 4 4 4 5 7 9 10 11 12 11 11 12 13 12 12 10
28 26 25 24 22 21 21 17 14 12 4 3 3 4 6 5 3 4 5 4 6 8 6 3 2 2 3 2 2 2 2 3 4 3 2 7 7 5 4 4 5 8 11 13 14 15 14 13 12 11 12 12 11 10
29 25 29 27 25 24 24 20 18 12 4 4 6 4 5 5 7 7 9 9 10 7 4 2 2 2 3 2 4 5 2 5 3 4 4 8 8 6 5 7 8 11 14 14 14 15 15 13 13 10 12 11 11 11
31 32 35 30 26 26 28 25 17 8 6 5 6 10 8 4 5 9 12 13 13 10 5 3 4 5 3 3 4 4 5 3 4 7 6 8 10 10 10 11 12 13 14 14 14 14 13 13 12 10 6 8 9 11
38 38 29 32 28 35 36 24 10 7 8 10 7 8 13 9 6 7 11 13 13 12 10 3 2 5 5 5 4 6 11 8 8 8 8 9 10 13 12 14 14 13 14 14 14 13 11 8 7 7 5 7 7 8
42 37 32 35 40 32 13 13 10 6 14 6 11 9 8 9 12 10 10 12 13 10 7 5 6 5 8 12 12 10 9 10 10 10 11 10 11 11 13 14 15 15 13 13 14 12 9 8 6 5 5 5 5 8
40 36 35 34 41 18 10 7 13 7 7 10 10 10 9 9 9 12 14 13 16 9 10 7 11 17 16 13 11 10 9 9 11 13 14 14 12 12 12 13 12 11 11 12 11 9 6 5 5 6 6 5 6 8
31 36 34 34 39 17 10 9 9 8 7 10 10 13 6 9 12 12 12 17 15 10 13 25 26 28 24 22 21 20 21 18 19 18 18 18 16 15 14 13 11 10 10 9 8 7 6 5 4 4 6 8 7 7
29 42 34 43 15 13 16 14 7 10 8 5 9 10 5 6 8 12 10 15 12 27 30 30 34 32 29 28 29 25 28 25 26 25 24 25 24 20 18 14 12 11 9 9 9 11 9 7 6 5 6 10 8 6
39 40 22 15 8 14 7 23 11 12 9 10 11 7 5 6 8 10 8 11 16 24 28 36 38 38 35 31 24 25 23 25 25 25 24 22 20 18 16 14 14 13 10 8 9 9 13 9 8 9 10 10 7 5
37 29 13 17 14 10 13 13 10 12 9 9 6 5 5 9 9 7 6 16 28 23 25 30 28 32 29 24 26 27 26 23 23 22 21 19 17 16 16 14 13 12 10 8 8 7 10 11 11 10 10 11 8 5
15 12 11 9 12 10 8 9 10 9 6 10 12 6 7 9 6 5 6 10 16 24 28 25 28 32 33 31 29 28 23 22 23 24 23 23 21 15 15 16 15 13 11 11 11 11 11 12 12 11 11 8 6 6
8 13 15 20 16 11 11 11 13 9 8 11 10 8 10 6 6 8 5 13 22 27 25 23 26 27 29 27 27 26 24 21 22 24 23 22 22 22 20 18 17 16 15 14 14 13 12 12 12 12 11 8 6 4
9 8 13 13 15 14 8 13 17 16 10 11 8 8 7 7 9 7 19 25 30 29 24 20 18 19 20 18 18 16 18 17 21 24 23 20 21 19 18 18 18 15 13 14 15 14 12 12 13 11 9 7 6 5
8 16 14 22 15 19 9 9 10 14 10 11 16 11 9 10 8 16 10 8 7 7 11 14 16 18 19 17 16 17 15 17 19 19 19 20 21 21 18 17 17 16 15 14 15 16 15 14 13 11 9 8 7 6
8 17 22 13 15 11 16 13 12 18 21 21 11 12 8 16 21 19 22 17 13 13 13 14 16 18 17 16 16 17 20 21 22 25 26 28 27 25 20 17 17 17 16 15 13 17 17 15 13 12 11 11 10 8
11 29 18 16 9 14 23 24 24 28 28 24 28 18 24 26 25 27 32 27 21 20 19 17 17 21 20 19 19 19 20 21 24 25 28 31 30 23 17 17 16 16 16 17 14 16 18 16 14 15 14 15 14 12
16 21 10 11 9 21 25 27 26 20 31 33 33 30 29 23 34 38 36 35 36 30 24 22 23 23 24 24 23 22 22 20 19 22 26 26 25 23 20 17 15 15 17 18 17 16 18 17 17 17 18 18 17 16
9 12 10 8 7 13 16 19 20 20 24 26 25 28 24 24 25 26 37 39 44 40 40 37 37 39 31 24 24 24 22 19 18 15 20 24 28 26 22 19 17 16 17 19 20 18 18 20 20 19 19 20 20 19
1 2 5 6 4 6 9 11 11 8 14 17 22 29 32 29 20 25 26 36 42 43 42 41 39 41 37 31 27 25 24 22 19 18 16 21 28 31 28 24 20 17 17 19 22 21 21 23 23 21 20 21 22 21
Wind_Direction
169 164 157 137 115 99 86 68 55 49 48 44 40 38 41 47 41 43 36 46 74 56 21 359 350 352 352 3 359 333 338 3 3 24 12 21 15 8 51 38 13 29 21 22 30 58 33 344 11 42 314 319 353 10
176 169 169 158 131 116 99 75 57 52 49 45 39 36 34 44 42 41 36 51 58 63 21 27 25 24 6 345 337 3 12 358 355 349 5 358 20 18 33 45 21 45 36 52 27 67 59 10 15 13 19 23 20 17
182 175 176 171 152 124 119 86 56 51 47 45 39 34 34 31 39 49 42 42 61 19 28 34 25 25 25 25 26 349 20 348 356 352 327 2 40 355 35 27 40 35 22 50 8 23 45 24 19 28 30 28 23 22
190 184 179 181 163 146 152 114 62 46 46 42 38 34 32 27 31 51 42 42 71 53 27 36 30 27 30 31 31 27 354 349 333 3 21 32 24 1 35 45 36 4 10 42 72 24 56 25 16 23 34 39 35 30
194 190 185 188 175 166 169 140 70 44 41 42 36 34 30 24 21 58 41 28 32 62 1 5 30 24 24 34 30 28 20 26 21 35 35 33 29 356 57 48 33 6 19 19 32 43 21 34 18 28 37 40 41 36
197 196 192 191 187 182 176 164 124 43 34 36 28 30 25 25 26 58 18 8 8 32 42 22 11 19 31 37 34 33 34 35 38 35 32 31 21 4 37 46 27 33 38 26 11 64 45 42 34 36 38 38 44 50
199 200 198 193 196 189 183 183 188 56 21 25 10 11 19 40 44 66 76 359 18 27 35 356 12 0 15 29 41 40 39 35 37 41 42 38 34 51 41 41 29 38 44 45 47 52 47 44 44 39 39 39 42 42
202 203 199 197 199 192 190 192 200 201 3 358 344 351 68 63 54 46 40 29 27 42 50 12 334 13 10 14 22 11 23 38 34 32 44 28 36 48 47 39 41 50 56 58 58 55 56 51 49 46 45 46 44 37
204 202 199 200 197 193 194 197 204 213 293 292 335 95 119 264 58 315 351 22 40 64 61 352 357 5 352 7 355 1 10 37 22 34 40 19 41 43 27 30 38 38 41 44 46 47 44 40 37 34 33 36 37 33
205 202 200 199 197 192 193 202 203 216 256 281 248 162 202 222 303 352 27 22 27 56 74 18 2 11 346 355 19 352 18 32 21 43 336 25 75 54 36 36 35 33 35 35 33 24 20 23 18 13 11 14 22 23
203 203 201 199 195 192 195 205 207 211 236 217 177 170 197 269 54 66 288 50 337 160 162 75 353 351 3 346 5 19 348 349 334 51 338 107 115 93 44 42 28 21 19 20 18 8 2 359 359 1 4 8 10 16
202 202 198 198 195 191 196 206 207 204 203 194 188 178 182 132 130 213 204 230 230 165 166 205 66 315 341 334 313 19 331 310 345 335 289 239 139 176 237 319 336 346 350 348 348 347 348 347 348 353 356 356 3 6
201 200 196 196 191 190 195 201 200 203 206 215 204 161 149 169 197 210 184 186 205 175 172 177 152 160 206 275 287 297 294 291 298 257 255 239 167 218 226 284 314 314 314 319 320 321 323 328 337 345 345 349 348 346
200 199 196 195 192 192 196 196 195 193 190 214 190 203 220 179 230 202 204 135 139 159 153 164 152 186 171 216 284 265 8 278 257 229 230 185 197 202 243 285 316 328 332 328 326 326 328 313 318 323 329 333 340 335
202 198 194 197 195 194 195 194 193 192 200 229 209 234 212 219 203 178 178 156 159 159 151 153 163 196 169 215 230 264 240 245 243 247 226 186 190 204 231 261 292 311 316 315 312 310 310 315 308 308 307 312 318 319
199 195 201 201 194 193 193 193 189 188 222 223 231 241 211 201 200 197 189 183 174 164 155 177 170 205 211 230 197 212 236 233 235 219 227 205 210 229 261 273 285 303 309 306 306 312 301 299 294 287 288 287 295 303
195 202 202 197 190 192 196 190 180 193 211 223 241 228 225 248 217 205 194 193 187 177 190 177 211 213 138 215 223 200 220 240 244 222 241 234 241 261 287 285 283 297 302 302 304 310 306 297 287 275 251 272 285 301
202 206 197 190 184 192 187 183 182 201 221 224 241 233 213 220 216 204 199 192 185 197 189 219 187 209 218 218 213 216 224 228 229 235 241 255 248 273 282 286 287 289 294 296 300 303 301 294 277 258 237 266 286 300
204 204 195 188 187 174 167 185 181 220 217 205 231 228 208 228 224 223 216 206 197 191 190 198 234 227 223 233 250 242 225 219 228 236 248 252 260 275 286 286 287 289 289 295 296 287 279 284 254 237 243 270 282 305
208 201 197 194 194 180 164 190 195 222 198 209 216 215 212 224 222 221 217 206 204 206 214 223 226 231 231 237 237 239 242 237 236 240 250 264 274 272 283 283 281 277 289 299 295 280 261 250 254 257 259 273 298 308
186 194 198 192 188 194 191 173 185 204 197 198 205 202 216 210 220 219 218 207 203 219 227 234 243 246 246 248 250 254 254 252 251 258 267 271 272 274 284 282 269 270 282 284 271 264 263 253 255 265 285 284 300 310
181 184 175 184 188 195 208 193 182 177 175 194 182 196 205 201 202 209 207 199 230 232 233 240 247 254 255 252 254 255 256 253 256 262 265 266 268 269 273 264 249 256 263 273 269 252 240 245 259 263 283 304 305 307
176 173 175 177 181 188 198 181 172 182 174 184 172 186 203 203 203 178 225 219 233 237 237 245 263 268 260 263 261 259 254 249 253 256 257 257 260 261 254 244 250 255 251 265 265 269 240 238 264 273 282 301 303 292
175 173 167 180 192 186 161 181 182 177 191 182 180 203 188 188 171 221 250 245 245 248 245 251 259 262 261 254 254 257 253 249 254 253 249 244 245 246 242 241 238 241 240 249 249 250 240 249 259 267 281 296 302 282
167 174 179 186 183 159 172 164 165 179 183 196 204 207 171 167 193 235 249 255 238 235 247 256 258 256 254 258 268 268 264 253 251 251 253 250 242 230 229 240 242 240 232 233 233 256 255 252 253 261 277 282 269 282
190 184 189 183 171 177 178 178 185 176 177 188 209 193 165 182 209 243 240 258 247 248 250 251 252 251 255 257 264 268 273 261 245 243 244 243 230 228 235 240 244 244 242 238 236 244 250 250 250 252 260 266 262 232
181 175 195 189 179 181 168 191 183 182 184 192 173 162 173 210 217 245 252 257 258 272 275 267 250 248 253 264 268 266 269 249 237 242 244 243 227 229 236 243 245 245 243 238 238 238 247 248 247 245 236 239 232 215
159 176 182 178 177 185 168 164 175 187 191 178 168 187 195 201 204 224 241 243 237 251 245 228 224 230 238 249 251 244 249 231 226 228 230 223 221 228 234 239 240 240 242 242 237 231 237 242 242 237 228 223 209 202
171 181 163 187 187 184 201 193 197 194 184 178 189 198 212 210 216 226 240 246 229 222 227 239 233 233 239 237 239 244 245 240 233 223 221 221 222 227 235 237 236 237 240 233 234 232 232 233 229 219 218 210 202 197
177 176 190 174 185 202 209 202 209 207 200 199 204 218 221 226 221 225 236 236 234 243 254 255 247 242 246 242 246 248 250 248 240 238 237 234 234 232 235 236 234 235 234 230 234 231 221 219 213 212 212 204 202 200
165 180 200 188 211 218 217 216 216 217 211 208 212 212 217 218 223 224 232 242 247 246 246 245 250 248 243 240 243 243 245 248 253 247 242 241 239 233 231 234 234 235 234 231 231 232 223 218 217 213 209 206 205 203
167 183 184 185 201 210 206 203 204 201 208 205 215 213 216 216 227 232 229 232 237 237 243 246 252 255 250 247 247 248 252 255 256 255 247 236 227 223 227 232 230 233 234 231 228 229 223 221 221 217 210 209 209 208
141 178 179 158 148 173 181 171 187 199 211 218 217 213 210 211 224 233 235 231 235 242 246 248 250 254 255 252 247 244 246 248 248 244 244 232 229 224 225 227 230 235 234 231 227 228 224 221 222 222 217 213 211 211
Height
1547 1550 1552 1553 1553 1553 1553 1552 1552 1551 1550 1549 1548 1546 1545 1544 1541 1540 1538 1536 1535 1535 1534 1531 1530 1527 1522 1517 1510 1505 1487 1484 1481 1473 1472 1473 1471 1471 1467 1471 1468 1461 1457 1460 1457 1457 1474 1479 1463 1464 1477 1471 1466 1462
1545 1548 1550 1552 1553 1553 1553 1553 1553 1551 1551 1550 1549 1548 1546 1545 1544 1542 1540 1538 1537 1537 1537 1533 1531 1529 1526 1523 1520 1513 1513 1506 1503 1496 1490 1486 1481 1481 1476 1472 1476 1471 1480 1478 1476 1485 1497 1490 1483 1481 1476 1473 1471 1468
1544 1546 1549 1551 1552 1552 1553 1553 1553 1552 1552 1551 1550 1549 1548 1546 1545 1544 1542 1540 1539 1538 1538 1537 1534 1532 1527 1524 1521 1520 1513 1512 1509 1508 1504 1499 1494 1495 1487 1492 1488 1486 1489 1486 1486 1494 1495 1492 1489 1485 1480 1477 1474 1471
1542 1545 1547 1549 1551 1552 1553 1553 1552 1552 1552 1552 1552 1551 1549 1548 1546 1546 1544 1542 1541 1540 1541 1540 1536 1534 1530 1527 1524 1521 1519 1516 1513 1510 1506 1503 1502 1504 1499 1503 1500 1503 1497 1497 1497 1499 1497 1497 1494 1490 1485 1481 1476 1473
1540 1543 1545 1548 1550 1552 1553 1553 1553 1552 1552 1553 1552 1551 1550 1549 1548 1547 1546 1544 1542 1544 1543 1541 1539 1536 1533 1530 1528 1525 1522 1519 1516 1514 1514 1513 1513 1512 1505 1506 1508 1511 1512 1510 1507 1511 1509 1508 1502 1495 1489 1485 1481 1477
1538 1540 1543 1546 1549 1550 1551 1552 1553 1553 1552 1553 1552 1552 1551 1550 1548 1548 1547 1546 1543 1542 1543 1542 1541 1539 1536 1533 1531 1528 1525 1524 1522 1522 1520 1519 1519 1515 1512 1513 1522 1518 1515 1512 1512 1516 1515 1510 1506 1500 1496 1494 1490 1485
1534 1538 1541 1544 1547 1549 1551 1551 1552 1553 1552 1552 1552 1552 1551 1551 1550 1550 1552 1550 1545 1543 1544 1543 1542 1542 1537 1536 1534 1533 1531 1529 1528 1527 1528 1525 1524 1523 1524 1523 1529 1527 1525 1522 1517 1515 1512 1511 1508 1505 1502 1500 1496 1494
1531 1535 1538 1541 1545 1547 1549 1550 1552 1552 1552 1552 1552 1551 1551 1551 1551 1551 1550 1549 1547 1546 1547 1547 1545 1543 1541 1540 1538 1535 1535 1533 1533 1532 1532 1530 1528 1527 1529 1534 1533 1531 1529 1526 1524 1521 1519 1517 1514 1511 1509 1506 1503 1500
1528 1532 1535 1539 1542 1545 1547 1549 1551 1551 1551 1551 1551 1551 1552 1552 1552 1552 1551 1550 1549 1552 1550 1550 1547 1546 1545 1544 1542 1540 1538 1537 1538 1537 1536 1534 1531 1535 1540 1538 1536 1534 1532 1530 1528 1527 1524 1521 1519 1517 1514 1510 1506 1503
1524 1529 1532 1536 1540 1543 1545 1548 1549 1550 1551 1551 1551 1551 1551 1551 1552 1552 1552 1552 1551 1551 1551 1551 1551 1548 1550 1545 1543 1542 1542 1542 1539 1543 1542 1538 1540 1543 1541 1539 1538 1537 1535 1533 1530 1528 1526 1524 1522 1519 1516 1513 1511 1507
1521 1526 1530 1533 1538 1541 1543 1547 1548 1549 1550 1550 1550 1550 1551 1551 1552 1552 1552 1552 1552 1552 1551 1552 1552 1550 1551 1549 1547 1548 1545 1542 1538 1542 1539 1538 1537 1542 1542 1540 1539 1537 1535 1534 1532 1531 1528 1526 1524 1521 1518 1515 1513 1510
1518 1522 1526 1531 1535 1539 1542 1545 1547 1548 1549 1550 1549 1549 1550 1551 1552 1554 1552 1552 1550 1546 1549 1550 1551 1551 1552 1550 1549 1548 1545 1544 1539 1544 1541 1535 1538 1540 1540 1539 1538 1536 1535 1534 1532 1531 1529 1526 1523 1521 1519 1516 1512 1509
1514 1519 1523 1528 1533 1536 1540 1543 1545 1547 1548 1549 1549 1549 1548 1551 1551 1547 1547 1544 1545 1546 1547 1549 1550 1550 1551 1551 1550 1548 1546 1543 1544 1542 1535 1533 1537 1537 1537 1537 1536 1535 1533 1532 1531 1529 1526 1525 1523 1520 1518 1516 1513 1510
1510 1516 1520 1525 1530 1534 1537 1540 1543 1545 1548 1548 1548 1547 1544 1543 1541 1537 1536 1537 1541 1542 1544 1546 1548 1549 1549 1549 1549 1547 1545 1545 1541 1537 1531 1531 1533 1535 1535 1535 1534 1533 1532 1530 1528 1526 1525 1522 1521 1519 1517 1515 1513 1510
1507 1512 1518 1523 1527 1531 1535 1538 1542 1544 1546 1547 1546 1540 1537 1536 1536 1537 1538 1539 1541 1544 1545 1546 1548 1549 1548 1548 1548 1547 1546 1541 1533 1526 1526 1528 1532 1533 1533 1533 1532 1531 1530 1528 1526 1524 1522 1520 1518 1516 1514 1513 1510 1509
1504 1510 1513 1518 1523 1528 1533 1536 1539 1543 1544 1543 1541 1536 1534 1534 1534 1535 1536 1538 1540 1542 1544 1545 1546 1547 1545 1544 1544 1543 1539 1531 1524 1525 1527 1528 1530 1530 1530 1530 1529 1528 1526 1524 1522 1520 1517 1516 1514 1513 1511 1510 1508 1507
1498 1499 1504 1513 1520 1525 1529 1533 1537 1539 1539 1537 1532 1530 1532 1531 1531 1532 1533 1535 1538 1540 1540 1542 1543 1542 1543 1540 1536 1532 1527 1521 1523 1525 1526 1526 1527 1527 1527 1526 1524 1523 1522 1520 1518 1516 1514 1512 1510 1509 1509 1506 1506 1504
1489 1494 1502 1509 1515 1519 1523 1528 1532 1532 1530 1528 1529 1526 1528 1528 1529 1529 1530 1532 1535 1536 1538 1538 1538 1538 1534 1528 1521 1519 1519 1520 1521 1522 1523 1523 1523 1523 1522 1521 1520 1519 1517 1516 1514 1512 1510 1509 1508 1508 1506 1505 1504 1503
1482 1489 1497 1503 1507 1514 1519 1523 1525 1524 1522 1523 1522 1523 1524 1524 1524 1526 1527 1529 1532 1533 1534 1534 1532 1524 1519 1515 1514 1515 1516 1516 1517 1518 1519 1519 1518 1518 1517 1516 1514 1513 1512 1511 1509 1508 1507 1505 1505 1505 1504 1502 1502 1500
1479 1486 1492 1498 1505 1508 1514 1516 1518 1517 1517 1516 1516 1517 1519 1519 1520 1520 1523 1526 1527 1529 1527 1522 1513 1510 1510 1510 1511 1512 1512 1513 1514 1514 1514 1514 1514 1513 1512 1511 1510 1509 1507 1506 1505 1503 1503 1502 1501 1500 1500 1499 1499 1498
1475 1480 1489 1494 1498 1502 1504 1505 1508 1508 1509 1509 1509 1511 1512 1513 1514 1515 1516 1520 1522 1516 1511 1504 1504 1502 1504 1504 1505 1506 1507 1508 1507 1508 1508 1508 1509 1508 1507 1506 1504 1504 1503 1502 1501 1500 1500 1499 1498 1498 1497 1496 1495 1493
1464 1471 1479 1486 1489 1492 1495 1495 1498 1500 1504 1504 1506 1506 1507 1508 1508 1508 1507 1511 1505 1496 1496 1497 1494 1495 1496 1495 1494 1497 1497 1498 1498 1499 1500 1500 1500 1500 1500 1499 1499 1499 1498 1497 1497 1496 1496 1496 1496 1495 1494 1493 1492 1490
1458 1465 1473 1478 1481 1483 1484 1486 1491 1493 1496 1497 1500 1500 1500 1501 1500 1500 1498 1490 1484 1482 1484 1485 1484 1486 1486 1486 1488 1487 1488 1490 1489 1490 1490 1491 1492 1492 1492 1492 1492 1492 1493 1493 1492 1491 1492 1492 1491 1491 1490 1489 1488 1487
1450 1456 1461 1466 1468 1470 1473 1476 1480 1484 1487 1489 1491 1491 1492 1492 1494 1493 1482 1473 1470 1473 1473 1473 1476 1476 1476 1476 1476 1475 1476 1478 1478 1479 1481 1482 1483 1484 1485 1486 1487 1487 1487 1488 1488 1487 1487 1487 1487 1487 1486 1486 1485 1484
1442 1448 1451 1451 1453 1459 1461 1465 1468 1473 1474 1478 1481 1481 1484 1487 1487 1482 1468 1457 1460 1461 1461 1463 1465 1465 1465 1466 1466 1467 1469 1469 1469 1470 1472 1473 1475 1478 1479 1480 1480 1481 1482 1482 1482 1482 1483 1483 1483 1483 1483 1482 1482 1481
1424 1427 1429 1429 1437 1441 1443 1449 1454 1458 1465 1470 1469 1471 1477 1478 1478 1468 1453 1446 1449 1450 1450 1452 1453 1455 1455 1457 1459 1459 1459 1460 1462 1462 1464 1465 1468 1470 1472 1474 1474 1475 1475 1476 1477 1477 1478 1479 1479 1479 1479 1479 1479 1479
1406 1409 1412 1416 1419 1423 1432 1435 1442 1448 1451 1454 1456 1465 1468 1466 1459 1447 1440 1439 1442 1442 1443 1444 1445 1446 1447 1450 1451 1452 1451 1451 1453 1455 1458 1460 1463 1465 1466 1467 1468 1469 1470 1471 1471 1472 1473 1474 1474 1474 1475 1476 1476 1477
1386 1392 1394 1401 1407 1411 1417 1425 1430 1432 1434 1437 1444 1445 1443 1437 1433 1433 1430 1432 1435 1436 1436 1437 1438 1439 1440 1443 1445 1446 1445 1446 1448 1450 1452 1454 1457 1459 1460 1461 1462 1464 1465 1465 1467 1468 1469 1469 1470 1471 1472 1472 1473 1474
1375 1377 1387 1393 1399 1405 1406 1406 1406 1408 1410 1416 1419 1422 1420 1421 1426 1426 1427 1428 1429 1431 1433 1433 1433 1434 1435 1437 1438 1439 1440 1441 1442 1444 1446 1447 1450 1452 1454 1455 1456 1458 1459 1461 1462 1463 1464 1465 1466 1467 1468 1469 1470 1471
1365 1369 1373 1379 1384 1383 1381 1385 1389 1395 1400 1403 1408 1410 1412 1414 1417 1420 1420 1421 1423 1425 1428 1428 1429 1429 1430 1431 1431 1431 1433 1435 1436 1437 1439 1440 1442 1447 1449 1450 1451 1452 1454 1455 1457 1458 1458 1460 1462 1463 1464 1465 1467 1468
1358 1364 1367 1369 1371 1371 1376 1379 1385 1389 1392 1394 1397 1399 1400 1405 1408 1408 1410 1412 1415 1418 1419 1420 1420 1421 1423 1424 1425 1425 1426 1428 1429 1430 1432 1434 1437 1441 1443 1445 1446 1447 1448 1449 1451 1452 1454 1456 1457 1458 1460 1461 1463 1465
1356 1358 1360 1363 1365 1368 1372 1375 1378 1381 1383 1385 1386 1391 1395 1397 1397 1395 1397 1403 1404 1406 1407 1409 1410 1409 1413 1416 1418 1419 1419 1422 1423 1424 1425 1427 1430 1434 1437 1438 1440 1441 1442 1444 1446 1447 1448 1450 1452 1453 1455 1457 1458 1460
1357 1357 1358 1360 1363 1366 1368 1371 1372 1374 1376 1376 1377 1378 1380 1383 1382 1381 1384 1388 1391 1392 1393 1395 1396 1398 1403 1407 1409 1411 1411 1413 1416 1418 1418 1419 1422 1426 1429 1431 1433 1435 1436 1438 1439 1441 1442 1444 1446 1448 1450 1451 1453 1455